Location: Observatoire de l'Aigle
(47.0607°N, 71.3152°W)
Time: 20:22:37
(UTC-04:00)

Daily predictions for brighter satellites

Satellite Brightness Start Highest point End
(mag) Time Altitude Azimuth Time Altitude Azimuth Time Altitude Azimuth
Meteor 2-16 Rocket 4.5 19:21:38 10° S 19:27:43 68° E 19:33:50 10° NNE
Cosmos 1844 4.4 19:25:51 10° SSE 19:30:56 33° ESE 19:36:03 10° NE
USA 267 4.1 19:25:59 10° ENE 19:32:00 41° NNE 19:38:03 10° NW
Helios 1B rocket 4.0 19:29:54 10° NE 19:32:27 16° E 19:34:58 10° SE
Resurs 1-3 4.0 19:28:44 10° SE 19:32:51 42° ENE 19:37:00 10° N
Helios 1A 4.1 19:29:46 10° ESE 19:33:11 25° ENE 19:36:38 10° N
Cosmos 2058 Rocket 3.5 19:34:26 10° SSW 19:38:54 71° W 19:43:26 10° N
Cosmos 1900 4.3 19:34:46 10° SSW 19:39:38 76° ESE 19:44:34 10° NE
HJ-1C 3.3 19:36:43 10° SSE 19:40:06 76° ENE 19:43:32 10° N
COSMO-SKYMED 1 4.3 19:37:29 10° N 19:41:32 38° WNW 19:45:33 10° SW
Cosmos 1937 Rocket 3.9 19:40:32 10° S 19:45:25 42° ESE 19:50:24 10° NE
Lacrosse 4 Rocket 1.8 19:41:43 10° S 19:45:29 38° ESE 19:49:17 10° NE
SL-27 R/B 3.0 19:43:15 10° N 19:46:36 38° ENE 19:49:59 10° SE
Cosmos 2298 Rocket 4.2 19:42:38 10° S 19:47:46 54° ESE 19:52:57 10° NNE
CZ-2D R/B 3.5 19:44:27 10° SE 19:48:09 47° ENE 19:51:55 10° N
Cosmos 1934 Rocket 4.1 19:44:28 10° SSE 19:50:22 51° E 19:56:14 10° NNE
Tiangong 1 2.1 19:49:36 10° WSW 19:52:16 31° S 19:54:27 13° SE
SJ-6B 3.7 19:49:15 10° S 19:52:53 50° W 19:56:33 10° NNW
Okean 3 Rocket 4.2 19:51:28 10° N 19:55:31 35° ENE 19:59:34 10° SE
Cosmos 1437 Rocket 2.8 19:51:44 10° S 19:55:40 63° E 19:59:42 10° NNE
Cosmos 1674 4.4 19:56:04 10° NNE 19:58:23 15° ENE 19:59:18 14° E
ALOS 2.9 19:56:25 10° S 20:01:02 61° W 20:05:41 10° NNW
USA 186 1.5 19:59:44 17° SE 20:01:10 35° ENE 20:03:17 10° N
CZ-4B DEB 3.7 20:00:40 17° ESE 20:02:25 28° ENE 20:05:09 10° N
SeaSat 1 3.9 19:58:09 10° S 20:02:45 39° WSW 20:07:24 10° NW
Cosmos 405 3.4 20:01:17 10° SSW 20:04:47 66° WNW 20:08:18 10° N
Abrixas 2.4 20:02:09 10° WNW 20:04:59 70° N 20:06:39 22° E
Lacrosse 5 2.8 20:01:00 10° S 20:05:10 26° SE 20:08:39 13° ENE
Cosmos 1821 Rocket 4.0 20:01:50 10° S 20:08:14 86° E 20:14:38 10° N
Cosmos 1758 4.3 20:08:08 11° SE 20:11:13 26° E 20:14:33 10° NNE
In-Cosmos 22 4.0 20:08:46 10° N 20:14:07 66° ENE 20:19:22 10° SSE
Cosmos 1939 Rocket 3.6 20:14:50 20° ESE 20:17:09 35° ENE 20:20:58 10° N
Cosmos 1844 Rocket 2.7 20:11:53 10° SSW 20:17:33 86° WNW 20:23:14 10° NNE
Resurs 01 Rocket 2.2 20:14:28 10° S 20:18:49 59° W 20:23:12 10° NNW
GP-B 3.7 20:16:20 15° SE 20:19:36 37° E 20:23:42 10° NNE
Cosmos 1953 3.0 20:19:44 16° SE 20:22:20 32° E 20:25:59 10° NNE
CZ-2C R/B 1.6 20:21:21 10° N 20:23:51 56° W 20:25:16 13° SSW
Cosmos 1833 Rocket 3.4 20:18:44 10° NNW 20:23:56 37° NE 20:26:46 23° ESE
Cosmos 2278 Rocket 2.4 20:18:44 10° S 20:24:10 49° ESE 20:29:38 10° NE
BREEZE-M DEB (TANK) 3.8 20:21:28 10° SSW 20:24:27 41° SE 20:32:24 10° ENE
Cosmos 1812 Rocket 3.8 20:20:46 10° SSW 20:25:11 74° W 20:29:37 10° N
CZ-4B DEB 4.5 20:22:44 16° SSE 20:25:28 67° ENE 20:29:02 10° N
Cosmos 1605 Rocket 4.0 20:19:53 10° S 20:26:03 67° E 20:32:22 10° NNE
Spot 1 4.3 20:25:49 10° SSE 20:30:23 85° WSW 20:35:17 10° NNW
Meteor 1-24 Rocket 4.2 20:25:12 10° NNW 20:30:33 61° W 20:36:03 10° S
Cosmos 2123 Rocket 4.2 20:28:41 10° NNW 20:35:02 75° W 20:41:18 10° S
YAOGAN 6 3.6 20:35:03 29° ENE 20:35:10 29° ENE 20:38:26 10° N
H-2A R/B 4.4 20:31:40 10° SSW 20:35:15 35° W 20:38:54 10° NNW
Cosmos 2297 4.4 20:30:32 10° SSE 20:35:22 29° ESE 20:40:15 10° NE
Cosmos 2150 Rocket 4.3 20:31:33 10° SSW 20:36:41 70° WNW 20:41:51 10° NNE
H-2A R/B 3.8 20:36:31 16° ENE 20:37:13 16° ENE 20:40:20 10° NNE
Cosmos 1766 Rocket 3.9 20:33:57 10° N 20:38:18 47° ENE 20:39:53 32° SE
SAR-Lupe-4 4.2 20:36:05 10° S 20:39:36 56° WSW 20:43:09 10° NNW
CZ-3 Stage 3 4.3 20:05:17 10° WSW 20:39:41 38° SSW 20:45:17 20° SE
USA 215 3.3 20:33:48 10° ENE 20:40:13 55° SE 20:46:35 10° SSW
Lacrosse 5 rocket 2.5 20:39:03 10° NW 20:42:35 29° NNE 20:43:45 24° NE
RESURS DK-1 3.1 20:39:38 10° NW 20:43:40 51° WSW 20:46:34 18° S
Cosmos 1076 Rocket 3.3 20:40:50 10° N 20:45:07 74° E 20:47:14 29° SSE
Timation 2 Rocket 4.2 20:40:36 10° NNW 20:46:54 53° NE 20:49:37 32° ESE
Cosmos 158 Rocket 4.1 20:44:45 10° NNW 20:49:43 52° ENE 20:51:20 37° ESE
Terra 4.1 20:51:01 11° NE 20:51:01 11° NE 20:51:41 10° NE
Cosmos 2082 Rocket 2.3 20:45:25 10° NNW 20:51:06 61° ENE 20:53:24 35° SE
Cosmos 1766 4.4 20:48:35 10° SSW 20:52:19 45° WNW 20:56:05 10° N
Cosmos 1153 Rocket 4.4 20:47:32 10° S 20:53:55 75° E 21:00:20 10° NNE
Envisat 3.0 20:51:32 17° S 20:55:29 82° WSW 21:00:36 10° NNW
Cosmos 990 Rocket 4.5 20:51:45 10° SW 20:56:58 62° WNW 21:02:11 10° NNE
Cosmos 1125 Rocket 3.5 20:56:04 10° S 21:01:06 54° ESE 21:06:12 10° NNE
Cosmos 1048 Rocket 3.8 20:57:51 10° NNW 21:03:01 79° ENE 21:04:42 43° SSE
Cosmos 1271 Rocket 4.4 21:06:25 22° NE 21:06:25 22° NE 21:08:07 10° NNE
Meteor 1-21 Rocket 4.3 21:01:09 10° NNW 21:06:57 80° W 21:10:58 21° S
BREEZE-M DEB (TANK) 3.1 21:05:12 10° WNW 21:06:51 43° NW 21:06:51 43° NW
Cosmos 1544 3.6 21:04:11 10° SSW 21:07:46 57° WNW 21:11:24 10° N
Helios 1B rocket 3.2 21:04:02 10° N 21:08:05 53° WNW 21:12:05 10° SSW
Meteor 1-4 Rocket 2.5 21:08:19 77° NW 21:08:19 77° NW 21:11:40 10° N
Cosmos-2242 3.2 21:10:17 51° NE 21:10:17 51° NE 21:13:48 10° NNE
Cosmos 1743 Rocket 4.0 21:06:12 10° N 21:10:03 46° ENE 21:10:03 46° ENE
Cosmos 1818 3.6 21:08:47 10° NW 21:14:14 73° WSW 21:15:57 44° SSE
USA 267 3.3 21:11:56 40° ESE 21:14:31 74° NNE 21:21:04 10° NW
H-2A R/B 4.0 21:16:33 16° NE 21:16:33 16° NE 21:17:55 10° NNE
CZ-3B DEB 2.4 21:09:23 10° WSW 21:18:41 78° NNW 21:20:49 34° NE
SPOT 1/Viking Rocket 4.2 21:20:19 39° ENE 21:20:19 39° ENE 21:24:55 10° N
Meteor 1-29 4.5 21:18:35 10° N 21:21:49 37° WNW 21:25:02 10° SW
COSMOS 2487 3.1 21:18:28 10° NNW 21:21:24 55° NW 21:21:24 55° NW
Lacrosse 4 Rocket 3.5 21:20:53 10° WSW 21:24:19 26° NW 21:27:45 10° N
Cosmos 2251 Rocket 4.1 21:19:49 10° N 21:24:45 42° ENE 21:24:45 42° ENE
ERS-1 Rocket 3.0 21:23:35 48° S 21:25:00 78° WSW 21:30:04 10° NNW
Cosmos 2344 4.0 21:18:03 10° SW 21:25:44 69° NW 21:34:54 10° NE
ARGOS 3.2 21:25:37 54° ENE 21:25:47 55° ENE 21:31:01 10° N
Cosmos 1459 Rocket 3.8 21:24:00 29° S 21:27:26 79° E 21:33:39 10° N
Cosmos 2173 Rocket 3.8 21:25:17 33° S 21:28:13 79° E 21:34:29 10° N
Cosmos 1269 Rocket 4.4 21:26:52 10° NNW 21:32:05 60° WSW 21:33:32 43° SSW
Cosmos 1340 Rocket 3.2 21:28:55 10° NNW 21:32:19 60° NNW 21:32:19 60° NNW
MetOp-A 4.0 21:33:00 69° SSE 21:33:41 85° ENE 21:39:04 10° NNW
Cosmos 1674 3.7 21:30:39 10° NNW 21:34:14 43° W 21:34:14 43° W
Cosmos 1408 Rocket 4.4 21:30:44 10° NNW 21:35:02 47° W 21:36:11 38° SW
YAOGAN 11 4.2 21:35:42 82° NW 21:35:42 82° NW 21:40:09 10° NNW
Cosmos 1470 4.0 21:43:50 38° NNW 21:43:50 38° NNW 21:46:26 10° N
Lacrosse 5 2.0 21:42:42 10° WSW 21:47:46 72° NW 21:47:58 71° NNW
SPOT 5 3.0 21:49:18 86° WSW 21:49:20 86° WSW 21:54:44 10° NNW
Cosmos 2016 Rocket 3.9 21:58:20 69° SSW 21:59:10 85° W 22:05:23 10° N
Cosmos 1725 Rocket 4.1 22:05:07 65° NE 22:05:07 65° NE 22:10:29 10° NNE
Meteor 1-11 4.3 22:01:40 10° NNW 22:06:42 72° NNW 22:06:42 72° NNW
Cosmos 1833 Rocket 3.6 22:02:41 10° NW 22:07:55 40° WSW 22:08:29 39° WSW
Cosmos 2278 Rocket 3.9 22:03:25 10° WSW 22:08:28 32° NW 22:13:33 10° NNE
Tsikada Rocket 3.9 22:03:42 10° N 22:09:40 83° N 22:09:40 83° N
H-2A R/B 2.7 22:17:08 55° NNW 22:17:08 55° NNW 22:21:17 10° NNW
Cosmos 2297 4.5 22:13:44 10° SW 22:19:16 50° WNW 22:24:53 10° NNE
Lacrosse 5 rocket 3.8 22:18:14 10° NW 22:19:28 19° WNW 22:19:28 19° WNW
USA 215 3.6 22:18:01 16° NE 22:23:17 60° NNW 22:29:42 10° WSW
Terra 3.5 22:29:53 29° N 22:29:53 29° N 22:32:13 10° N
Cosmos 2082 Rocket 4.0 22:30:20 10° NW 22:34:42 23° W 22:35:17 23° WSW
USA 267 4.3 22:59:17 36° WSW 22:59:17 36° WSW 23:03:56 10° WNW
Cosmos 2227 Rocket 4.4 23:39:36 10° N 23:42:04 18° NNE 23:42:04 18° NNE
